When you browse on this site, cookies collect data to enhance your experience and personalize the content and advertising you see.
Visit our Privacy Policy to learn more. By continuing to use the site, you agree to this use of cookies and data.
  • In Belgium
  • List of Countries
  • For 7 days
  • Water Temperature
  • Weather Map
  • Weather Widgets
  • user-avatar
    Login

    Hourly Weather Barcelona

    Today, 30 March, Monday

    Time Temperature Precipitation Wind Pressure Humidity
    00:00 +27°C° 0 mm 5 mps 759 mmHg 82%
    01:00 +26°C° 0 mm 5 mps 759 mmHg 84%
    02:00 +26°C° 0 mm 4 mps 759 mmHg 85%
    03:00 +25°C° 0 mm 4 mps 758 mmHg 86%
    04:00 +25°C° 0 mm 3 mps 758 mmHg 87%
    05:00 +25°C° 0 mm 3 mps 758 mmHg 87%
    06:00 +26°C° 0 mm 3 mps 759 mmHg 79%
    07:00 +28°C° 0 mm 3 mps 759 mmHg 71%
    08:00 +29°C° 0 mm 3 mps 760 mmHg 63%
    09:00 +33°C° 0 mm 4 mps 760 mmHg 56%
    10:00 +35°C° 0 mm 5 mps 760 mmHg 50%
    11:00 +38°C° 0 mm 6 mps 760 mmHg 43%
    12:00 +36°C° 0 mm 6 mps 759 mmHg 43%
    13:00 +36°C° 0 mm 7 mps 758 mmHg 43%
    14:00 +36°C° 0 mm 7 mps 757 mmHg 43%
    15:00 +35°C° 0 mm 7 mps 757 mmHg 46%
    16:00 +34°C° 0 mm 8 mps 757 mmHg 49%
    17:00 +33°C° 0 mm 8 mps 756 mmHg 52%
    18:00 +32°C° 0 mm 8 mps 757 mmHg 59%
    19:00 +29°C° 0 mm 7 mps 757 mmHg 67%
    20:00 +27°C° 0 mm 7 mps 757 mmHg 74%
    21:00 +27°C° 0 mm 6 mps 758 mmHg 75%
    22:00 +27°C° 0 mm 6 mps 758 mmHg 77%
    23:00 +27°C° 0 mm 5 mps 759 mmHg 78%

    Tomorrow, 31 March, Tuesday

    Time Temperature Precipitation Wind Pressure Humidity
    00:00 +26°C° 0 mm 5 mps 758 mmHg 80%
    01:00 +26°C° 0 mm 4 mps 758 mmHg 82%
    02:00 +25°C° 0 mm 4 mps 757 mmHg 84%
    03:00 +25°C° 0 mm 4 mps 757 mmHg 85%
    04:00 +23°C° 0 mm 4 mps 757 mmHg 86%
    05:00 +24°C° 0 mm 3 mps 757 mmHg 87%
    06:00 +26°C° 0 mm 3 mps 758 mmHg 79%
    07:00 +27°C° 0 mm 2 mps 758 mmHg 72%
    08:00 +29°C° 0 mm 2 mps 759 mmHg 65%
    09:00 +32°C° 0 mm 2 mps 759 mmHg 55%
    10:00 +35°C° 0 mm 2 mps 759 mmHg 46%
    11:00 +38°C° 0 mm 2 mps 758 mmHg 36%
    12:00 +38°C° 0 mm 3 mps 757 mmHg 38%
    13:00 +37°C° 0 mm 3 mps 756 mmHg 39%
    14:00 +36°C° 0 mm 4 mps 755 mmHg 40%
    15:00 +35°C° 0 mm 5 mps 755 mmHg 41%
    16:00 +34°C° 0 mm 5 mps 755 mmHg 42%
    17:00 +33°C° 0 mm 6 mps 755 mmHg 43%
    18:00 +32°C° 0 mm 6 mps 755 mmHg 47%
    19:00 +29°C° 0 mm 6 mps 756 mmHg 50%
    20:00 +28°C° 0 mm 6 mps 756 mmHg 53%
    21:00 +27°C° 0 mm 6 mps 757 mmHg 57%
    22:00 +26°C° 0 mm 5 mps 757 mmHg 62%
    23:00 +26°C° 0 mm 4 mps 758 mmHg 66%

    Day after tomorrow, 1 April, Wednesday

    Time Temperature Precipitation Wind Pressure Humidity
    00:00 +25°C° 0 mm 4 mps 757 mmHg 68%
    01:00 +25°C° 0 mm 3 mps 757 mmHg 70%
    02:00 +24°C° 0 mm 3 mps 756 mmHg 72%
    03:00 +24°C° 0 mm 2 mps 757 mmHg 72%
    04:00 +23°C° 0 mm 2 mps 757 mmHg 72%
    05:00 +23°C° 0 mm 2 mps 757 mmHg 73%
    06:00 +25°C° 0 mm 2 mps 757 mmHg 67%
    07:00 +26°C° 0 mm 2 mps 757 mmHg 62%
    08:00 +28°C° 0 mm 2 mps 758 mmHg 56%
    09:00 +31°C° 0 mm 2 mps 758 mmHg 49%
    10:00 +35°C° 0 mm 2 mps 758 mmHg 41%
    11:00 +38°C° 0 mm 2 mps 758 mmHg 34%
    12:00 +37°C° 0 mm 2 mps 757 mmHg 35%
    13:00 +37°C° 0 mm 3 mps 756 mmHg 37%
    14:00 +37°C° 0 mm 4 mps 755 mmHg 38%
    15:00 +36°C° 0 mm 4 mps 755 mmHg 41%
    16:00 +34°C° 0 mm 5 mps 754 mmHg 43%
    17:00 +33°C° 0 mm 5 mps 754 mmHg 46%
    18:00 +32°C° 0 mm 6 mps 754 mmHg 53%
    19:00 +30°C° 0 mm 6 mps 755 mmHg 60%
    20:00 +28°C° 0 mm 6 mps 756 mmHg 68%
    21:00 +28°C° 0 mm 5 mps 756 mmHg 70%
    22:00 +27°C° 0 mm 4 mps 757 mmHg 73%
    23:00 +27°C° 0 mm 3 mps 757 mmHg 76%

    2 April, Thursday

    Time Temperature Precipitation Wind Pressure Humidity
    00:00 +26°C° 0 mm 3 mps 757 mmHg 76%
    01:00 +26°C° 0 mm 2 mps 757 mmHg 77%
    02:00 +26°C° 0 mm 2 mps 757 mmHg 78%
    03:00 +25°C° 0 mm 1 mps 757 mmHg 79%
    04:00 +25°C° 0 mm 1 mps 757 mmHg 81%
    05:00 +25°C° 0 mm 1 mps 757 mmHg 82%
    06:00 +26°C° 0 mm 1 mps 757 mmHg 75%
    07:00 +28°C° 0 mm 1 mps 758 mmHg 69%
    08:00 +29°C° 0 mm 2 mps 758 mmHg 62%
    09:00 +32°C° 0 mm 2 mps 758 mmHg 53%
    10:00 +37°C° 0 mm 2 mps 758 mmHg 44%
    11:00 +40°C° 0 mm 2 mps 758 mmHg 34%
    12:00 +39°C° 0 mm 2 mps 757 mmHg 36%
    13:00 +39°C° 0 mm 3 mps 756 mmHg 38%
    14:00 +38°C° 0 mm 4 mps 755 mmHg 40%
    15:00 +37°C° 0 mm 4 mps 755 mmHg 44%
    16:00 +35°C° 0 mm 4 mps 755 mmHg 48%
    17:00 +34°C° 0 mm 4 mps 754 mmHg 52%
    18:00 +33°C° 0 mm 5 mps 755 mmHg 59%
    19:00 +32°C° 0 mm 5 mps 756 mmHg 67%
    20:00 +29°C° 0 mm 5 mps 756 mmHg 75%
    21:00 +29°C° 0 mm 4 mps 757 mmHg 75%
    22:00 +29°C° 0 mm 3 mps 757 mmHg 76%
    23:00 +29°C° 0 mm 2 mps 758 mmHg 77%

    3 April, Friday

    Time Temperature Precipitation Wind Pressure Humidity
    00:00 +28°C° 0 mm 2 mps 757 mmHg 81%
    01:00 +28°C° 0 mm 2 mps 757 mmHg 85%
    02:00 +27°C° 0 mm 1 mps 757 mmHg 89%
    03:00 +27°C° 0 mm 2 mps 757 mmHg 91%
    04:00 +27°C° 0 mm 2 mps 757 mmHg 92%
    05:00 +26°C° 0 mm 2 mps 757 mmHg 93%
    06:00 +28°C° 0 mm 2 mps 757 mmHg 86%
    07:00 +29°C° 0 mm 2 mps 758 mmHg 80%
    08:00 +30°C° 0 mm 2 mps 758 mmHg 73%
    09:00 +34°C° 0 mm 2 mps 758 mmHg 61%
    10:00 +37°C° 0 mm 2 mps 758 mmHg 49%
    11:00 +40°C° 0 mm 2 mps 758 mmHg 37%
    12:00 +40°C° 0.1 mm 2 mps 757 mmHg 36%
    13:00 +40°C° 0.1 mm 3 mps 756 mmHg 36%
    14:00 +42°C° 0.1 mm 3 mps 755 mmHg 35%
    15:00 +40°C° 0 mm 4 mps 755 mmHg 41%
    16:00 +37°C° 0 mm 4 mps 755 mmHg 47%
    17:00 +35°C° 0 mm 4 mps 754 mmHg 54%
    18:00 +33°C° 0 mm 4 mps 755 mmHg 61%
    19:00 +32°C° 0 mm 4 mps 755 mmHg 69%
    20:00 +29°C° 0 mm 4 mps 756 mmHg 76%
    21:00 +29°C° 0 mm 3 mps 756 mmHg 77%
    22:00 +29°C° 0 mm 3 mps 756 mmHg 78%
    23:00 +29°C° 0 mm 2 mps 757 mmHg 79%

    4 April, Saturday

    Time Temperature Precipitation Wind Pressure Humidity
    00:00 +28°C° 0 mm 2 mps 757 mmHg 81%
    01:00 +28°C° 0 mm 2 mps 757 mmHg 83%
    02:00 +28°C° 0 mm 1 mps 756 mmHg 85%
    03:00 +27°C° 0 mm 2 mps 756 mmHg 83%
    04:00 +27°C° 0 mm 2 mps 757 mmHg 80%
    05:00 +27°C° 0 mm 3 mps 757 mmHg 78%
    06:00 +28°C° 0 mm 3 mps 757 mmHg 73%
    07:00 +29°C° 0 mm 3 mps 758 mmHg 68%
    08:00 +30°C° 0 mm 3 mps 758 mmHg 63%
    09:00 +34°C° 0 mm 3 mps 758 mmHg 56%
    10:00 +36°C° 0 mm 4 mps 758 mmHg 49%
    11:00 +38°C° 0 mm 4 mps 758 mmHg 41%
    12:00 +38°C° 0 mm 4 mps 757 mmHg 41%
    13:00 +40°C° 0 mm 4 mps 756 mmHg 40%
    14:00 +40°C° 0 mm 4 mps 755 mmHg 40%
    15:00 +39°C° 0 mm 5 mps 755 mmHg 43%
    16:00 +37°C° 0 mm 5 mps 755 mmHg 46%
    17:00 +36°C° 0 mm 5 mps 754 mmHg 50%
    18:00 +34°C° 0 mm 5 mps 755 mmHg 58%
    19:00 +32°C° 0 mm 5 mps 755 mmHg 65%
    20:00 +30°C° 0 mm 5 mps 756 mmHg 73%
    21:00 +29°C° 0 mm 4 mps 756 mmHg 75%
    22:00 +29°C° 0 mm 4 mps 757 mmHg 77%
    23:00 +28°C° 0 mm 3 mps 757 mmHg 79%
    Show more